Tiempo cada hora Abartzuza

Hoy, 22 Junio, Martes

Tiempo Temperatura Precipitaciones Viento Presión Humedad
00:00 +11°C° 0 mm 1 mps 708 mmHg 89%
01:00 +11°C° 0 mm 1 mps 708 mmHg 89%
02:00 +11°C° 0 mm 1 mps 708 mmHg 89%
03:00 +11°C° 0 mm 1 mps 707 mmHg 89%
04:00 +11°C° 0 mm 1 mps 708 mmHg 88%
05:00 +12°C° 0 mm 1 mps 708 mmHg 86%
06:00 +12°C° 0 mm 1 mps 708 mmHg 84%
07:00 +14°C° 0 mm 1 mps 709 mmHg 79%
08:00 +15°C° 0 mm 2 mps 709 mmHg 73%
09:00 +17°C° 0 mm 2 mps 709 mmHg 67%
10:00 +17°C° 0.1 mm 2 mps 710 mmHg 69%
11:00 +16°C° 0.1 mm 3 mps 710 mmHg 70%
12:00 +16°C° 0 mm 3 mps 710 mmHg 72%
13:00 +16°C° 0.1 mm 3 mps 710 mmHg 70%
14:00 +17°C° 0.1 mm 3 mps 711 mmHg 69%
15:00 +17°C° 0.1 mm 4 mps 711 mmHg 67%
16:00 +17°C° 0.1 mm 4 mps 711 mmHg 68%
17:00 +17°C° 0.1 mm 4 mps 711 mmHg 70%
18:00 +15°C° 0.1 mm 4 mps 711 mmHg 71%
19:00 +14°C° 0 mm 3 mps 711 mmHg 75%
20:00 +13°C° 0 mm 3 mps 712 mmHg 80%
21:00 +13°C° 0 mm 2 mps 712 mmHg 85%
22:00 +13°C° 0.1 mm 2 mps 712 mmHg 87%
23:00 +13°C° 0.1 mm 2 mps 712 mmHg 88%

Mañana, 23 Junio, Miércoles

Tiempo Temperatura Precipitaciones Viento Presión Humedad
00:00 +13°C° 0.1 mm 2 mps 712 mmHg 89%
01:00 +13°C° 0.5 mm 2 mps 712 mmHg 90%
02:00 +13°C° 0.5 mm 2 mps 711 mmHg 91%
03:00 +12°C° 0.5 mm 2 mps 711 mmHg 92%
04:00 +12°C° 0.9 mm 2 mps 711 mmHg 92%
05:00 +12°C° 0.9 mm 2 mps 712 mmHg 91%
06:00 +11°C° 0.9 mm 3 mps 712 mmHg 91%
07:00 +12°C° 0.3 mm 2 mps 712 mmHg 89%
08:00 +12°C° 0.3 mm 2 mps 713 mmHg 86%
09:00 +12°C° 0.3 mm 2 mps 713 mmHg 84%
10:00 +13°C° 0.1 mm 2 mps 713 mmHg 80%
11:00 +13°C° 0.1 mm 2 mps 713 mmHg 77%
12:00 +14°C° 0.1 mm 2 mps 713 mmHg 73%
13:00 +14°C° 0.1 mm 2 mps 713 mmHg 72%
14:00 +14°C° 0.1 mm 3 mps 713 mmHg 72%
15:00 +14°C° 0.1 mm 3 mps 713 mmHg 71%
16:00 +14°C° 0.1 mm 3 mps 713 mmHg 73%
17:00 +13°C° 0.1 mm 3 mps 713 mmHg 76%
18:00 +14°C° 0.1 mm 2 mps 713 mmHg 78%
19:00 +13°C° 0.1 mm 2 mps 713 mmHg 81%
20:00 +13°C° 0.1 mm 2 mps 714 mmHg 84%
21:00 +12°C° 0.1 mm 2 mps 714 mmHg 88%
22:00 +12°C° 0.2 mm 2 mps 714 mmHg 88%
23:00 +12°C° 0.2 mm 2 mps 714 mmHg 89%

Pasado mañana, 24 Junio, Jueves

Tiempo Temperatura Precipitaciones Viento Presión Humedad
00:00 +12°C° 0.2 mm 2 mps 714 mmHg 90%
01:00 +12°C° 0.1 mm 2 mps 714 mmHg 91%
02:00 +12°C° 0.1 mm 2 mps 714 mmHg 91%
03:00 +12°C° 0.1 mm 2 mps 714 mmHg 92%
04:00 +12°C° 0 mm 2 mps 714 mmHg 91%
05:00 +13°C° 0 mm 2 mps 714 mmHg 91%
06:00 +13°C° 0 mm 2 mps 714 mmHg 90%
07:00 +14°C° 0 mm 2 mps 714 mmHg 87%
08:00 +14°C° 0 mm 2 mps 715 mmHg 83%
09:00 +15°C° 0 mm 2 mps 715 mmHg 80%
10:00 +16°C° 0 mm 2 mps 715 mmHg 75%
11:00 +17°C° 0 mm 2 mps 715 mmHg 71%
12:00 +18°C° 0 mm 2 mps 715 mmHg 66%
13:00 +19°C° 0 mm 2 mps 715 mmHg 63%
14:00 +20°C° 0 mm 3 mps 715 mmHg 59%
15:00 +21°C° 0 mm 3 mps 715 mmHg 56%
16:00 +20°C° 0 mm 3 mps 714 mmHg 58%
17:00 +20°C° 0 mm 3 mps 714 mmHg 61%
18:00 +19°C° 0 mm 3 mps 714 mmHg 64%
19:00 +17°C° 0 mm 3 mps 714 mmHg 72%
20:00 +14°C° 0 mm 3 mps 715 mmHg 81%
21:00 +13°C° 0 mm 2 mps 715 mmHg 89%
22:00 +12°C° 0 mm 2 mps 715 mmHg 91%
23:00 +12°C° 0 mm 2 mps 715 mmHg 92%

25 Junio, Viernes

Tiempo Temperatura Precipitaciones Viento Presión Humedad
00:00 +10°C° 0 mm 2 mps 714 mmHg 93%
01:00 +10°C° 0 mm 2 mps 714 mmHg 93%
02:00 +10°C° 0 mm 2 mps 714 mmHg 93%
03:00 +11°C° 0 mm 1 mps 714 mmHg 93%
04:00 +11°C° 0 mm 1 mps 714 mmHg 91%
05:00 +12°C° 0 mm 1 mps 714 mmHg 89%
06:00 +13°C° 0 mm 1 mps 714 mmHg 87%
07:00 +15°C° 0 mm 1 mps 714 mmHg 77%
08:00 +18°C° 0 mm 1 mps 714 mmHg 67%
09:00 +20°C° 0 mm 1 mps 715 mmHg 56%
10:00 +22°C° 0 mm 1 mps 714 mmHg 52%
11:00 +24°C° 0 mm 1 mps 714 mmHg 47%
12:00 +26°C° 0 mm 1 mps 714 mmHg 42%
13:00 +26°C° 0 mm 1 mps 714 mmHg 41%
14:00 +27°C° 0 mm 1 mps 713 mmHg 40%
15:00 +28°C° 0 mm 1 mps 713 mmHg 38%
16:00 +27°C° 0 mm 1 mps 713 mmHg 43%
17:00 +27°C° 0 mm 1 mps 712 mmHg 47%
18:00 +26°C° 0 mm 2 mps 712 mmHg 52%
19:00 +23°C° 0 mm 2 mps 712 mmHg 62%
20:00 +20°C° 0 mm 2 mps 712 mmHg 73%
21:00 +17°C° 0 mm 2 mps 712 mmHg 83%
22:00 +17°C° 0 mm 2 mps 712 mmHg 84%
23:00 +18°C° 0 mm 1 mps 712 mmHg 84%

26 Junio, Sábado

Tiempo Temperatura Precipitaciones Viento Presión Humedad
00:00 +16°C° 0 mm 1 mps 712 mmHg 85%
01:00 +16°C° 0 mm 1 mps 712 mmHg 84%
02:00 +16°C° 0 mm 1 mps 712 mmHg 83%
03:00 +16°C° 0 mm 1 mps 711 mmHg 83%
04:00 +18°C° 0 mm 1 mps 712 mmHg 81%
05:00 +18°C° 0 mm 1 mps 712 mmHg 79%
06:00 +19°C° 0 mm 1 mps 712 mmHg 76%
07:00 +20°C° 0 mm 2 mps 712 mmHg 69%
08:00 +23°C° 0 mm 2 mps 712 mmHg 62%
09:00 +25°C° 0 mm 3 mps 712 mmHg 54%
10:00 +27°C° 0 mm 3 mps 712 mmHg 50%
11:00 +28°C° 0 mm 3 mps 712 mmHg 45%
12:00 +30°C° 0 mm 2 mps 712 mmHg 41%
13:00 +31°C° 0 mm 2 mps 711 mmHg 39%
14:00 +32°C° 0 mm 1 mps 711 mmHg 36%
15:00 +33°C° 0 mm 1 mps 711 mmHg 34%
16:00 +32°C° 0 mm 1 mps 711 mmHg 39%
17:00 +31°C° 0 mm 1 mps 710 mmHg 44%
18:00 +30°C° 0 mm 2 mps 710 mmHg 49%
19:00 +27°C° 0.3 mm 2 mps 710 mmHg 60%
20:00 +24°C° 0.3 mm 2 mps 711 mmHg 71%
21:00 +20°C° 0.3 mm 2 mps 711 mmHg 83%
22:00 +19°C° 0.5 mm 2 mps 711 mmHg 86%
23:00 +18°C° 0.5 mm 2 mps 711 mmHg 90%

27 Junio, Domingo

Tiempo Temperatura Precipitaciones Viento Presión Humedad
00:00 +17°C° 0.5 mm 2 mps 711 mmHg 94%
01:00 +16°C° 0 mm 2 mps 711 mmHg 94%
02:00 +16°C° 0 mm 2 mps 711 mmHg 94%
03:00 +16°C° 0 mm 2 mps 711 mmHg 95%
04:00 +16°C° 0 mm 2 mps 711 mmHg 93%
05:00 +16°C° 0 mm 2 mps 712 mmHg 92%
06:00 +16°C° 0 mm 2 mps 712 mmHg 91%
07:00 +17°C° 0 mm 2 mps 712 mmHg 87%
08:00 +18°C° 0 mm 2 mps 712 mmHg 84%
09:00 +19°C° 0 mm 2 mps 712 mmHg 81%
10:00 +19°C° 0 mm 3 mps 713 mmHg 78%
11:00 +20°C° 0 mm 3 mps 713 mmHg 75%
12:00 +21°C° 0 mm 3 mps 713 mmHg 73%
13:00 +21°C° 0 mm 4 mps 713 mmHg 71%
14:00 +20°C° 0 mm 4 mps 713 mmHg 70%
15:00 +20°C° 0 mm 5 mps 713 mmHg 68%
16:00 +20°C° 0 mm 4 mps 713 mmHg 69%
17:00 +19°C° 0 mm 4 mps 713 mmHg 69%
18:00 +19°C° 0 mm 4 mps 713 mmHg 69%
19:00 +17°C° 0 mm 3 mps 713 mmHg 76%
20:00 +16°C° 0 mm 3 mps 713 mmHg 82%
21:00 +14°C° 0 mm 2 mps 713 mmHg 88%
22:00 +13°C° 0 mm 2 mps 713 mmHg 90%
23:00 +13°C° 0 mm 2 mps 714 mmHg 91%
Mostrar más

Necesitamos Su Consentimiento

Meteoprog y nuestros Proveedores de Servicios pueden almacenar y acceder a sus datos personales como cookies, identificadores de dispositivo u otras tecnologías similares de su dispositivo y procesar dichos datos para personalizar contenido y anuncios, además de ofrecer funciones de redes sociales y analizar el tráfico.

  • Almacenar y/o acceder a información en su dispositivo

    Se puede almacenar o acceder a cookies, identificadores de dispositivo u otra información de su dispositivo para los fines anteriormente indicados.

  • Anuncios y contenido personalizados, medición de anuncios y contenido, percepciones del público, y desarrollo de productos

    Los anuncios y el contenido pueden personalizarse en base a su perfil. Se pueden añadir más datos para personalizar mejor los anuncios y contenidos. Se puede medir el rendimiento de los anuncios y contenidos. Se puede obtener la percepción sobre el público que ha visto los anuncios y contenidos. Dichos datos pueden usarse para desarrollar o mejorar la experiencia del usuario, sistemas y software.

Al hacer clic en ‘Estoy De Acuerdo’ usted permitirá el uso de las cookies, identificadores de dispositivo, balizas web u otras tecnologías similares indicadas. Su configuración puede cambiarse desde el navegador de su dispositivo.

Para ciertos fines, los intereses legítimos pueden ser considerados por encima del consentimiento. Puede leer más sobre ello en nuestra Política de Privacidad y Cookies.